Total_Precipitation_Accumulation
0.22 0.26 0.34 0.39 0.32 0.20 0.07 0.01 0.00 0.01 0.01 0.03 0.02 0.01 0.01 0.02 0.03 0.04 0.03 0.02 0.04 0.07 0.13 0.26 0.37 0.44 0.48 0.52 0.52 0.52 0.54 0.56 0.61 0.64 0.68 0.72 0.74 0.79 0.88 0.90 0.89 0.89 0.94 0.97 1.01 0.98 0.95 0.92 0.85
0.22 0.33 0.44 0.49 0.29 0.13 0.04 0.01 0.01 0.01 0.02 0.03 0.02 0.01 0.01 0.02 0.02 0.03 0.03 0.03 0.03 0.05 0.11 0.22 0.36 0.45 0.51 0.53 0.54 0.53 0.55 0.58 0.63 0.67 0.70 0.74 0.77 0.80 0.87 0.90 0.91 0.90 0.91 1.00 1.00 0.98 0.98 0.96 0.93
0.34 0.47 0.51 0.50 0.29 0.08 0.02 0.01 0.01 0.02 0.03 0.03 0.02 0.02 0.02 0.03 0.03 0.04 0.03 0.04 0.05 0.06 0.11 0.22 0.38 0.49 0.58 0.60 0.58 0.58 0.61 0.65 0.69 0.72 0.77 0.81 0.84 0.85 0.89 0.87 0.86 0.84 0.81 0.85 0.87 0.91 0.98 0.99 0.94
0.51 0.66 0.62 0.47 0.21 0.07 0.02 0.01 0.01 0.02 0.03 0.03 0.01 0.02 0.03 0.03 0.03 0.04 0.04 0.05 0.07 0.10 0.15 0.26 0.42 0.55 0.64 0.67 0.64 0.64 0.68 0.73 0.78 0.83 0.86 0.90 0.97 0.96 0.94 0.90 0.89 0.82 0.78 0.81 0.84 0.89 0.97 0.96 0.89
0.65 0.75 0.65 0.41 0.14 0.05 0.02 0.01 0.02 0.02 0.02 0.03 0.02 0.02 0.03 0.03 0.03 0.05 0.07 0.08 0.10 0.16 0.24 0.34 0.50 0.65 0.73 0.77 0.75 0.73 0.78 0.81 0.85 0.88 0.93 0.98 1.02 1.02 0.97 0.93 0.90 0.88 0.86 0.85 0.86 0.91 0.99 0.94 0.87
0.78 0.79 0.56 0.28 0.09 0.03 0.02 0.01 0.02 0.03 0.03 0.02 0.03 0.03 0.04 0.05 0.05 0.08 0.09 0.10 0.12 0.19 0.30 0.44 0.67 0.76 0.81 0.88 0.89 0.85 0.89 0.93 0.95 0.98 1.04 1.08 1.08 1.07 1.07 0.98 0.91 0.92 0.93 0.89 0.90 0.94 0.98 0.92 0.86
0.82 0.70 0.41 0.19 0.08 0.04 0.04 0.03 0.03 0.04 0.04 0.03 0.03 0.04 0.05 0.08 0.09 0.11 0.13 0.16 0.21 0.30 0.42 0.53 0.71 0.84 0.94 1.04 1.07 1.03 1.04 1.07 1.05 1.08 1.13 1.18 1.17 1.14 1.11 1.06 0.97 0.96 0.96 1.01 0.97 0.93 0.90 0.87 0.83
0.83 0.76 0.41 0.21 0.12 0.08 0.05 0.05 0.05 0.04 0.04 0.05 0.05 0.06 0.07 0.09 0.10 0.16 0.21 0.28 0.35 0.43 0.52 0.64 0.75 0.88 0.99 1.12 1.21 1.25 1.25 1.25 1.27 1.26 1.18 1.19 1.29 1.31 1.26 1.15 1.08 1.04 1.02 1.04 1.06 0.99 0.89 0.84 0.82
0.93 0.93 0.47 0.21 0.14 0.10 0.08 0.09 0.05 0.05 0.06 0.08 0.07 0.06 0.08 0.11 0.15 0.24 0.33 0.44 0.52 0.59 0.66 0.80 0.88 0.96 1.04 1.14 1.24 1.44 1.55 1.55 1.50 1.47 1.35 1.36 1.38 1.35 1.30 1.19 1.13 1.06 1.06 1.04 1.10 1.13 1.03 0.92 0.85
1.03 0.79 0.38 0.19 0.16 0.14 0.12 0.12 0.09 0.10 0.11 0.11 0.10 0.09 0.13 0.19 0.24 0.29 0.35 0.43 0.54 0.59 0.72 0.86 1.03 1.09 1.21 1.26 1.34 1.50 1.62 1.67 1.59 1.36 1.37 1.47 1.36 1.32 1.26 1.26 1.27 1.17 1.14 1.11 1.10 1.14 1.11 1.02 0.86
0.85 0.56 0.29 0.20 0.17 0.19 0.18 0.16 0.13 0.14 0.14 0.12 0.13 0.13 0.18 0.25 0.30 0.36 0.39 0.44 0.54 0.62 0.75 0.91 1.12 1.28 1.38 1.38 1.36 1.43 1.53 1.62 1.62 1.42 1.26 1.33 1.39 1.41 1.42 1.31 1.35 1.34 1.27 1.28 1.22 1.19 1.07 0.96 0.90
0.62 0.41 0.30 0.26 0.22 0.24 0.24 0.21 0.18 0.13 0.12 0.14 0.17 0.17 0.20 0.29 0.34 0.39 0.43 0.46 0.56 0.69 0.82 0.98 1.15 1.34 1.48 1.53 1.49 1.47 1.49 1.53 1.55 1.52 1.44 1.37 1.38 1.32 1.25 1.22 1.15 1.16 1.13 1.15 1.17 1.07 0.99 0.92 0.86
0.49 0.36 0.29 0.28 0.29 0.29 0.30 0.28 0.21 0.13 0.10 0.16 0.22 0.23 0.24 0.28 0.37 0.48 0.53 0.54 0.58 0.70 0.85 1.09 1.25 1.38 1.56 1.68 1.66 1.65 1.61 1.46 1.53 1.61 1.66 1.55 1.40 1.31 1.25 1.19 1.16 1.09 1.06 1.05 1.04 0.97 0.90 0.86 0.81
0.41 0.36 0.31 0.28 0.30 0.33 0.38 0.37 0.31 0.17 0.14 0.23 0.27 0.28 0.30 0.30 0.39 0.52 0.62 0.63 0.61 0.70 0.87 1.15 1.36 1.43 1.61 1.69 1.67 1.69 1.75 1.62 1.64 1.68 1.64 1.71 1.64 1.44 1.39 1.35 1.23 1.15 1.08 1.03 1.02 0.98 0.93 0.87 0.81
0.43 0.50 0.42 0.31 0.29 0.32 0.43 0.50 0.35 0.21 0.21 0.30 0.33 0.35 0.37 0.37 0.42 0.52 0.65 0.71 0.67 0.74 0.91 1.17 1.39 1.54 1.64 1.64 1.69 1.74 1.79 1.81 1.74 1.72 1.70 1.74 1.73 1.67 1.54 1.51 1.42 1.27 1.19 1.16 1.12 1.10 1.04 1.00 0.90
0.67 0.81 0.69 0.38 0.31 0.36 0.54 0.54 0.27 0.22 0.28 0.31 0.38 0.38 0.41 0.40 0.41 0.50 0.69 0.85 0.83 0.87 0.93 1.11 1.38 1.54 1.66 1.68 1.68 1.71 1.82 1.87 1.88 1.89 1.84 1.78 1.82 1.82 1.80 1.68 1.58 1.40 1.37 1.33 1.29 1.21 1.17 1.07 0.99
1.00 0.95 0.66 0.42 0.35 0.44 0.58 0.46 0.24 0.24 0.33 0.37 0.43 0.44 0.44 0.46 0.44 0.49 0.63 0.83 0.90 0.91 1.00 1.15 1.34 1.48 1.61 1.78 1.83 1.76 1.80 1.90 1.98 1.98 1.98 1.84 1.84 1.91 1.97 1.97 1.83 1.68 1.59 1.48 1.38 1.27 1.20 1.15 1.08
0.87 0.68 0.51 0.42 0.39 0.44 0.51 0.40 0.27 0.25 0.34 0.39 0.45 0.47 0.44 0.50 0.45 0.47 0.59 0.77 0.91 0.95 1.05 1.17 1.32 1.49 1.63 1.88 2.03 2.06 1.94 1.95 1.97 1.94 1.86 1.86 1.86 1.87 1.89 1.97 2.03 1.98 1.89 1.76 1.59 1.47 1.30 1.19 1.15
0.55 0.62 0.52 0.36 0.34 0.45 0.46 0.37 0.27 0.26 0.32 0.40 0.43 0.49 0.45 0.49 0.52 0.54 0.62 0.71 0.91 0.99 1.03 1.16 1.22 1.42 1.60 1.78 1.95 1.99 1.97 1.94 1.94 1.87 1.78 1.71 1.75 1.78 1.82 1.78 1.88 1.93 1.90 1.81 1.72 1.63 1.57 1.43 1.31
0.64 0.72 0.57 0.39 0.33 0.50 0.50 0.40 0.29 0.27 0.32 0.40 0.40 0.47 0.50 0.51 0.56 0.61 0.67 0.74 0.91 1.04 1.03 1.13 1.25 1.36 1.43 1.56 1.72 1.83 1.90 1.96 1.97 1.89 1.91 1.77 1.69 1.67 1.76 1.80 1.76 1.75 1.76 1.75 1.68 1.63 1.60 1.55 1.43
0.75 0.65 0.53 0.48 0.45 0.55 0.62 0.58 0.35 0.30 0.28 0.36 0.41 0.47 0.58 0.61 0.62 0.65 0.70 0.77 0.91 1.05 1.09 1.10 1.22 1.36 1.42 1.56 1.76 1.90 2.08 2.13 2.20 2.03 1.88 1.81 1.73 1.62 1.61 1.73 1.77 1.72 1.68 1.66 1.62 1.54 1.48 1.47 1.38
0.80 0.45 0.46 0.53 0.80 0.90 0.78 0.90 0.45 0.32 0.30 0.36 0.43 0.47 0.59 0.63 0.63 0.70 0.71 0.78 0.90 0.99 1.11 1.15 1.27 1.39 1.44 1.61 1.79 1.80 1.95 1.99 1.95 1.84 1.77 1.70 1.69 1.65 1.56 1.56 1.63 1.69 1.63 1.55 1.54 1.55 1.49 1.49 1.47
0.65 0.42 0.53 0.65 0.90 1.06 0.80 0.89 0.50 0.29 0.36 0.37 0.41 0.45 0.55 0.63 0.61 0.68 0.71 0.71 0.81 0.92 1.06 1.16 1.30 1.44 1.51 1.57 1.74 1.80 1.75 1.79 1.87 1.91 1.85 1.76 1.70 1.64 1.57 1.53 1.54 1.56 1.55 1.47 1.44 1.49 1.52 1.53 1.50
0.60 0.71 0.86 0.99 1.41 1.69 0.71 0.69 0.56 0.48 0.57 0.46 0.40 0.45 0.56 0.63 0.65 0.68 0.67 0.65 0.77 0.91 1.04 1.16 1.28 1.39 1.51 1.55 1.65 1.82 1.78 1.72 1.78 1.91 1.96 1.88 1.79 1.70 1.57 1.46 1.46 1.44 1.41 1.39 1.36 1.37 1.37 1.41 1.44
0.97 1.46 2.17 2.31 2.29 1.40 0.40 0.53 0.64 0.52 0.51 0.56 0.53 0.52 0.56 0.60 0.66 0.70 0.61 0.64 0.70 0.82 0.98 1.12 1.28 1.32 1.38 1.46 1.56 1.65 1.78 1.75 1.69 1.69 1.75 1.88 1.86 1.73 1.63 1.54 1.42 1.38 1.33 1.29 1.29 1.32 1.32 1.28 1.32
1.05 1.31 1.75 1.73 1.18 0.54 0.32 0.53 0.57 0.42 0.37 0.38 0.40 0.49 0.52 0.56 0.60 0.64 0.61 0.63 0.66 0.71 0.84 1.00 1.13 1.29 1.40 1.45 1.50 1.55 1.65 1.78 1.69 1.64 1.56 1.65 1.71 1.59 1.51 1.56 1.48 1.39 1.35 1.33 1.31 1.28 1.28 1.31 1.26
0.93 1.02 0.89 1.19 0.85 0.59 0.50 0.47 0.38 0.21 0.21 0.25 0.30 0.41 0.53 0.61 0.64 0.60 0.61 0.65 0.64 0.71 0.77 0.91 1.01 1.17 1.37 1.50 1.51 1.54 1.58 1.66 1.68 1.64 1.60 1.58 1.58 1.56 1.54 1.55 1.55 1.48 1.48 1.50 1.48 1.42 1.32 1.31 1.32
0.74 0.91 1.13 1.57 1.32 0.76 0.49 0.47 0.54 0.39 0.38 0.33 0.35 0.43 0.53 0.63 0.70 0.67 0.62 0.68 0.68 0.71 0.75 0.81 0.97 1.08 1.23 1.43 1.59 1.58 1.53 1.52 1.62 1.68 1.69 1.65 1.60 1.58 1.56 1.57 1.59 1.55 1.48 1.54 1.58 1.52 1.42 1.41 1.37
0.82 1.12 1.40 1.47 1.12 0.91 0.64 0.63 0.66 0.57 0.56 0.48 0.44 0.48 0.56 0.64 0.71 0.66 0.59 0.59 0.65 0.70 0.80 0.84 0.92 1.04 1.15 1.25 1.43 1.54 1.53 1.52 1.58 1.65 1.62 1.64 1.62 1.60 1.54 1.48 1.52 1.59 1.56 1.50 1.55 1.53 1.47 1.45 1.37
0.71 0.97 1.22 1.50 1.09 0.71 0.67 0.66 0.51 0.48 0.52 0.47 0.45 0.45 0.49 0.58 0.64 0.64 0.57 0.56 0.62 0.72 0.80 0.90 0.95 0.94 1.03 1.14 1.26 1.40 1.50 1.51 1.54 1.54 1.58 1.63 1.63 1.59 1.51 1.46 1.46 1.50 1.53 1.50 1.50 1.49 1.46 1.45 1.40